Simultaneous Nadir Overpasses (SNOs) Predictions

Prediction of SNOs between LANDSAT-8 and METOP-A Satellite Orbit:

Table of predicted SNOs for the next 14.0 days since TLE Epoch: 9/22/2017
Index Date (LANDSAT-8) Time (LANDSAT-8) Lat,Lon (LANDSAT-8) SZA (LANDSAT-8 ) Date (METOP-A) Time (METOP-A) Lat,Lon (METOP-A) SZA (METOP-A ) Distance(km) Time Diff (sec)
1 09/24/2017 08:02:25 81.24, 101.27 84.25 09/24/2017 08:01:50 81.24, 101.12 84.21 2.50 35
2 09/24/2017 08:51:51 -81.26, -90.80 95.70 09/24/2017 08:52:29 -81.26, -90.88 95.69 1.37 38
3 09/27/2017 03:36:41 81.25, 167.88 85.39 09/27/2017 03:36:09 81.24, 167.80 85.36 1.46 32
4 09/27/2017 04:26:07 -81.25, -24.53 94.61 09/27/2017 04:26:48 -81.25, -24.58 94.59 0.89 41
5 09/29/2017 23:10:57 81.24,-125.92 86.47 09/29/2017 23:10:28 81.24,-125.92 86.46 0.45 29
6 09/30/2017 00:00:23 -81.26, 42.07 93.47 09/30/2017 00:01:07 -81.26, 42.09 93.45 0.44 44
7 10/02/2017 18:45:13 81.24, -59.38 87.59 10/02/2017 18:44:47 81.25, -59.27 87.60 1.78 26
8 10/02/2017 19:34:39 -81.26, 108.63 92.34 10/02/2017 19:35:26 -81.26, 108.74 92.31 1.85 47
9 10/05/2017 14:19:29 81.25, 7.13 88.71 10/05/2017 14:19:07 81.24, 6.97 88.67 2.82 22




NCC Satellite Simultaneous Nadir Overpasses (SNOs) Prediction Service
